Location: Sedan
(39.2354°N, 78.5718°W)
Time: 20:37:08
(UTC+00:00)

WORLDVIEW 2 - Pass Details

Date: 19 August 2022
Orbit: 764 x 767 km, 98.5° (Epoch: 05 October)

Event Time Altitude Azimuth Distance (km) Brightness Sun altitude
Exits shadow 03:09:31 52° 9° (N) 954 5.6 -30.0°
Drops below altitude 10° 03:13:24 10° 351° (N) 2,315 8.2 -30.4°
Sets 03:15:43 0° 350° (N) 3,245 9.2 -30.7°
